Location: Ailly
(50.0793°N, 1.9944°E)
Time: 00:26:07
(UTC+00:00)

Cosmos 2341 Rocket - Pass Details

Date: 15 January 2026
Orbit: 967 x 1004 km, 82.9° (Epoch: 6 February)

Event Time Altitude Azimuth Distance (km) Brightness Sun altitude
Rises 06:40:49 0° 188° (S) 3,714 7.2 -10.0°
Reaches altitude 10° 06:43:20 10° 189° (S) 2,770 6.5 -9.6°
Maximum altitude 06:49:43 87° 276° (W) 1,013 4.1 -8.7°
Drops below altitude 10° 06:56:10 10° 9° (N) 2,785 6.3 -7.7°
Sets 06:58:42 0° 10° (N) 3,736 6.9 -7.4°
